Location: Ay?beleni
(36.6500°N, 30.3000°E)
Time: 17:16:37
(UTC+00:00)

HJ-1C - Visible Passes

Search period start: 04 August 2021 00:00
Search period end: 14 August 2021 00:00
Orbit: 427 x 437 km, 97.1° (Epoch: 04 August)

Date Brightness Start Highest point End Pass type
(mag) Time Alt. Az. Time Alt. Az. Time Alt. Az.
04 Aug 5.6 17:32:57 10° SSW 17:35:46 26° W 17:38:37 10° NW visible
06 Aug 6.2 17:44:53 10° SW 17:47:15 18° W 17:49:38 10° NW visible
08 Aug 6.5 17:57:08 10° WSW 17:58:43 13° W 18:00:18 10° WNW visible
11 Aug 5.2 17:26:27 10° SSW 17:29:26 32° W 17:32:27 10° NNW visible
13 Aug 5.9 17:38:09 10° SSW 17:40:49 22° W 17:43:29 10° NW visible
